Hourly Data Report for October 27, 2014

All times are specified in Local Standard Time (LST). Add 1 hour to adjust for Daylight Saving Time where and when it is observed.

SAINT JOHN A
NEW BRUNSWICK

45°18'58.000" N
65°53'24.000" W
108.80 m
8104901
71609
YSJ

Download Data

Hourly Data (October 2014)
Hourly Data Report for October 27, 2014
Temp Definition
°C
Dew Point Temp Definition
°C
Rel Hum Definition
%
Wind Dir Definition
10's deg

Wind Spd Definition
km/h
Visibility Definition
km
Stn Press Definition
kPa
Hmdx Definition


Wind Chill Definition


Weather Definition


TIME
00:00 Legend Double Dagger 6.8 5.0 88 30 18 24.1 98.34     Drizzle
01:00 Legend Double Dagger 5.9 4.1 88 29 16 24.1 98.38     LegendNANA
02:00 Legend Double Dagger 5.3 3.5 88 31 25 24.1 98.39     Mainly Clear
03:00 Legend Double Dagger 5.1 3.3 88 31 20 24.1 98.42     LegendNANA
04:00 Legend Double Dagger 4.8 3.3 90 32 17 24.1 98.47     LegendNANA
05:00 Legend Double Dagger 4.2 3.3 94 28 13 24.1 98.49     Mostly Cloudy
06:00 Legend Double Dagger 4.5 3.3 92 27 16 24.1 98.58     LegendNANA
07:00 Legend Double Dagger 5.2 3.4 88 28 13 24.1 98.62     LegendNANA
08:00 Legend Double Dagger 5.9 3.2 83 30 23 24.1 98.69     Mostly Cloudy
09:00 Legend Double Dagger 6.1 2.9 80 30 30 24.1 98.74     LegendNANA
10:00 Legend Double Dagger 6.2 3.2 81 31 24 24.1 98.79     LegendNANA
11:00 Legend Double Dagger 6.6 3.2 79 30 20 24.1 98.83     Rain Showers
12:00 Legend Double Dagger 8.8 2.0 62 32 36 24.1 98.81     LegendNANA
13:00 Legend Double Dagger 9.2 0.9 56 30 38 24.1 98.81     LegendNANA
14:00 Legend Double Dagger 9.6 1.3 56 32 33 24.1 98.88     Mostly Cloudy
15:00 Legend Double Dagger 8.3 0.6 58 31 30 24.1 98.93     LegendNANA
16:00 Legend Double Dagger 8.0 0.7 60 31 34 24.1 99.02     LegendNANA
17:00 Legend Double Dagger 7.8 0.8 61 30 24 24.1 99.15     Mainly Clear
18:00 Legend Double Dagger 6.9 0.6 64 31 20 24.1 99.24     LegendNANA
19:00 Legend Double Dagger 6.1 0.7 68 31 16 24.1 99.33     LegendNANA
20:00 Legend Double Dagger 5.5 0.9 72 30 14 24.1 99.41     Clear
21:00 Legend Double Dagger 5.9 1.1 71 30 17 24.1 99.51     LegendNANA
22:00 Legend Double Dagger 5.9 1.1 71 30 13 24.1 99.60     LegendNANA
23:00 Legend Double Dagger 6.0 1.2 71 30 20 24.1 99.67     Mostly Cloudy

Notes on Data Quality.

Legend

  • E = Estimated
  • M = Missing
  • NA = Not Available
  • ‡ = Partner data that is not subject to review by the National Climate Archives
Date modified: